Dewpoint
-3 -3 -5 -5 -5 -5 -6 -5 -4 -4 -4 -4 -5 -5 -7 -7 -8 -8 -8 -8 -9 -11 -12 -13 -13 -14 -15 -16 -16 -17 -17 -17 -20 -22 -23 -17 -12 -6 -2 1 3 5 7 9
-4 -4 -5 -5 -5 -4 -3 -3 -3 -3 -2 -4 -4 -5 -7 -7 -7 -7 -8 -8 -9 -9 -11 -12 -13 -13 -14 -14 -14 -14 -14 -14 -15 -15 -15 -18 -16 -13 -11 -10 -8 -3 0 3
-3 -4 -4 -5 -3 -3 -3 -3 -3 -2 -1 -4 -5 -4 -7 -11 -10 -7 -7 -8 -8 -8 -9 -10 -11 -12 -12 -12 -12 -13 -13 -14 -14 -14 -14 -14 -13 -15 -15 -13 -13 -12 -11 -8
-3 -4 -3 -4 -3 -2 -1 -3 -2 -1 0 -2 -3 -1 -4 -9 -12 -13 -13 -12 -10 -8 -7 -9 -10 -11 -11 -10 -11 -11 -11 -11 -12 -12 -11 -10 -8 -9 -10 -13 -11 -8 -8 -10
-5 -4 -3 -2 -2 -2 -1 -4 -2 -1 0 -0 -0 2 0 -10 -10 -12 -12 -11 -12 -13 -12 -9 -9 -9 -10 -10 -10 -10 -10 -11 -11 -11 -12 -10 -9 -9 -9 -9 -9 -5 -4 -6
-2 -3 -4 -3 -3 -4 -5 -5 -4 -0 0 -1 -2 1 -1 -8 -10 -11 -11 -11 -11 -11 -11 -12 -9 -9 -9 -10 -9 -9 -9 -9 -10 -10 -9 -9 -8 -8 -8 -8 -9 -4 -3 -4
-6 -3 -6 -5 -5 -6 -4 -9 -8 -9 -2 -2 -2 -0 -2 -7 -11 -11 -11 -11 -10 -11 -10 -11 -10 -9 -8 -8 -8 -8 -8 -8 -8 -8 -8 -8 -7 -7 -7 -7 -8 -9 -9 -8
-5 -4 -6 -6 -5 -5 -3 -4 -6 -12 -9 -5 -2 -2 -5 -11 -11 -10 -10 -10 -10 -10 -11 -10 -9 -7 -8 -7 -7 -6 -7 -7 -7 -7 -7 -6 -6 -6 -6 -5 -5 -6 -10 -9
-9 -12 -11 -9 -9 -9 -6 -5 -5 -5 -4 -4 -5 -5 -9 -11 -11 -10 -9 -9 -10 -9 -9 -9 -9 -8 -7 -7 -7 -8 -8 -10 -9 -7 -6 -6 -5 -6 -6 -5 -5 -8 -9 -10
-8 -17 -11 -10 -9 -11 -8 -8 -6 -6 -7 -7 -8 -8 -6 -9 -9 -9 -9 -9 -9 -8 -8 -8 -8 -8 -9 -10 -10 -9 -9 -9 -9 -7 -6 -5 -5 -5 -6 -7 -12 -11 -6 -8
-10 -13 -17 -13 -10 -9 -11 -8 -6 -6 -6 -5 -5 -7 -11 -10 -9 -9 -9 -9 -9 -9 -7 -7 -8 -10 -11 -11 -9 -8 -8 -6 -8 -7 -8 -7 -7 -5 -5 -6 -12 -10 -8 -7
-8 -10 -12 -16 -14 -11 -10 -10 -9 -4 -8 -5 -4 -3 -9 -10 -9 -10 -9 -8 -8 -8 -7 -9 -10 -10 -9 -8 -7 -7 -7 -6 -5 -6 -5 -5 -5 -5 -5 -7 -9 -9 -8 -7
-10 -12 -11 -15 -10 -7 -7 -7 -6 -5 -3 -3 -3 -7 -9 -9 -9 -9 -9 -8 -8 -8 -9 -9 -8 -7 -7 -7 -6 -6 -6 -5 -5 -4 -4 -6 -3 -4 -4 -7 -7 -7 -8 -8
-8 -11 -12 -5 -10 -7 -5 -6 -6 -6 -3 -4 -4 -9 -10 -9 -9 -9 -8 -8 -8 -9 -8 -7 -7 -6 -6 -6 -7 -7 -6 -5 -4 -3 -5 -3 -2 -5 -4 -4 -5 -6 -8 -6
-8 -6 -7 -6 -7 -9 -8 -9 -5 -4 -5 -6 -12 -8 -10 -11 -9 -8 -8 -7 -8 -7 -6 -6 -6 -6 -7 -6 -6 -5 -4 -4 -4 -3 -3 -2 -3 -2 -4 -4 -4 -4 -6 -6
-5 -6 -3 -5 -4 -4 -3 -4 -4 -5 -5 -5 -5 -5 -8 -8 -8 -8 -7 -8 -6 -5 -6 -6 -7 -7 -5 -5 -5 -5 -5 -5 -4 -4 -4 -4 -3 -3 -3 -4 -4 -4 -7 -5
-4 -3 -3 -6 -4 -5 -7 -9 -5 -4 -4 -5 -4 -7 -8 -7 -6 -7 -7 -5 -6 -7 -7 -7 -6 -5 -6 -6 -6 -5 -5 -5 -5 -5 -5 -5 -5 -4 -3 -3 -3 -4 -4 -5
-4 -4 -3 -3 -5 -7 -9 -8 -7 -6 -5 -5 -5 -5 -6 -7 -7 -5 -7 -7 -7 -7 -7 -6 -6 -6 -6 -5 -5 -5 -5 -4 -4 -4 -5 -5 -5 -5 -4 -4 -4 -4 -5 -4
-5 -4 -3 -5 -3 -6 -9 -7 -6 -5 -6 -6 -5 -6 -7 -8 -5 -5 -7 -7 -8 -7 -7 -7 -6 -5 -5 -5 -5 -5 -5 -5 -4 -4 -4 -3 -3 -4 -4 -4 -4 -4 -4 -3
-5 -6 -6 -3 -6 -5 -9 -7 -8 -9 -6 -8 -7 -7 -6 -3 -2 -6 -6 -8 -8 -8 -8 -6 -5 -5 -5 -4 -4 -3 -3 -3 -3 -3 -3 -4 -3 -3 -3 -3 -3 -2 -4 -3
-3 -3 -2 -2 -4 -4 -7 -7 -8 -7 -6 -7 -8 -7 -4 -3 -4 -6 -7 -9 -9 -9 -8 -5 -5 -4 -4 -3 -3 -3 -3 -3 -3 -3 -3 -3 -3 -4 -3 -3 -3 -3 -2 -3
-2 -2 -2 -3 -2 -2 -7 -6 -6 -7 -9 -8 -7 -4 -3 -5 -6 -7 -8 -8 -8 -7 -7 -5 -4 -4 -3 -3 -3 -3 -3 -2 -2 -3 -3 -4 -3 -3 -4 -3 -3 -3 -4 -3
-4 -5 -3 -3 -3 -7 -7 -9 -9 -8 -8 -7 -4 -5 -6 -6 -7 -8 -8 -7 -6 -6 -5 -4 -4 -4 -3 -3 -3 -3 -3 -2 -2 -2 -2 -4 -4 -3 -4 -3 -3 -3 -3 -4
-7 -7 -5 -6 -7 -7 -8 -8 -8 -8 -8 -6 -5 -5 -6 -7 -8 -7 -7 -6 -6 -5 -4 -4 -4 -4 -3 -3 -3 -3 -3 -3 -3 -3 -3 -3 -4 -4 -3 -3 -5 -6 -6 -5
-6 -6 -6 -5 -7 -8 -8 -9 -9 -8 -8 -5 -5 -5 -6 -8 -9 -7 -6 -6 -5 -5 -4 -4 -4 -4 -3 -3 -3 -3 -3 -3 -3 -3 -3 -3 -4 -3 -3 -4 -6 -5 -5 -5
-5 -5 -5 -4 -7 -8 -9 -9 -8 -8 -7 -5 -5 -5 -8 -9 -8 -7 -7 -6 -5 -4 -4 -4 -4 -4 -3 -3 -3 -3 -3 -3 -3 -3 -2 -2 -3 -3 -3 -3 -4 -5 -5 -4
Wind_Speed
4 5 2 4 3 2 2 1 3 4 1 6 3 5 2 5 9 10 11 12 14 15 14 15 17 20 22 24 26 28 28 29 29 27 23 17 13 11 9 9 9 9 15 23
5 1 2 2 2 2 1 2 4 3 3 5 4 3 2 2 1 4 6 7 8 8 10 13 15 19 22 23 26 27 29 30 31 32 31 27 22 17 14 13 12 11 10 12
3 1 1 1 2 3 2 3 2 3 4 5 6 2 5 3 3 2 1 1 2 4 7 9 12 16 17 21 24 26 29 31 33 31 29 27 24 23 22 20 18 17 16 15
1 4 1 2 1 3 3 2 1 2 1 3 4 5 5 5 4 3 3 4 5 6 6 7 9 11 14 17 20 22 23 23 24 25 25 24 24 26 26 23 21 20 19 18
1 3 4 2 0 2 6 2 2 1 4 2 2 2 5 6 4 3 3 7 6 8 10 13 11 12 14 18 20 22 23 23 25 26 26 26 24 26 28 26 20 17 19 19
2 3 1 1 1 1 4 2 5 4 3 1 2 4 4 6 7 4 0 7 5 8 12 15 14 14 14 16 18 21 21 22 24 23 24 25 28 30 30 26 22 20 23 24
5 2 5 4 2 4 8 6 4 5 4 5 1 0 7 7 8 8 3 3 9 10 16 14 12 14 16 18 21 24 24 27 25 24 28 31 30 28 30 29 26 26 27 27
2 3 4 7 2 1 4 4 4 4 3 5 4 6 5 7 16 10 3 5 9 10 11 12 10 14 17 21 24 27 29 29 28 29 33 33 31 31 32 31 29 30 29 25
3 4 4 3 2 2 1 4 3 2 1 1 3 6 3 3 6 8 3 8 8 7 12 13 13 17 21 28 32 38 37 37 36 36 36 36 35 35 32 33 35 36 31 26
3 2 1 4 1 7 3 4 2 3 3 5 5 6 5 10 11 7 5 8 12 11 13 16 18 25 31 36 40 36 38 35 37 38 37 38 38 38 39 39 40 34 32 28
2 2 2 1 3 2 3 1 4 3 4 4 3 6 5 14 14 8 8 9 16 17 17 23 29 37 41 40 40 41 42 41 39 40 42 41 46 45 42 42 36 31 32 30
2 3 3 3 1 2 1 2 4 4 4 1 3 8 4 7 18 11 6 19 25 15 23 31 39 40 39 40 42 44 46 46 46 49 48 48 45 46 41 37 36 31 31 30
3 1 3 4 4 3 2 3 4 5 3 6 5 6 3 2 6 11 16 23 21 24 32 38 37 39 41 41 43 45 46 45 49 43 43 49 45 42 37 34 32 32 32 33
3 2 5 6 3 1 4 4 4 5 3 4 9 13 12 7 8 17 25 25 26 34 37 36 37 39 38 41 43 42 43 43 39 42 49 44 48 45 39 37 38 34 32 34
3 2 2 4 6 4 6 10 8 10 6 7 18 7 20 7 7 20 22 24 31 30 31 33 35 37 41 42 43 42 41 42 43 44 42 42 45 45 44 39 40 42 39 34
2 2 2 5 2 1 6 14 14 17 15 14 21 25 21 22 11 14 19 27 30 34 37 37 41 42 41 42 44 44 44 45 44 45 45 44 42 44 44 39 42 40 36 33
5 4 2 5 4 7 7 8 12 5 6 7 8 10 2 1 7 15 22 29 32 35 37 41 42 42 42 43 43 45 46 46 44 43 44 43 42 42 41 42 39 40 38 32
6 5 3 3 4 1 5 2 4 10 6 13 11 9 6 9 15 20 28 24 27 35 40 40 40 43 46 46 46 45 45 43 43 45 44 43 42 41 40 39 38 38 37 32
4 4 1 2 3 8 5 1 5 7 7 12 16 10 8 16 21 14 15 19 35 35 37 38 39 40 45 46 46 45 46 46 44 45 45 45 42 40 38 38 36 37 30 32
5 3 4 2 3 7 4 4 6 4 8 6 9 4 6 9 6 8 21 34 36 36 36 38 37 39 42 46 45 45 48 46 47 45 49 42 44 42 37 38 35 32 29 31
3 2 8 3 4 9 10 7 4 4 8 11 7 9 7 5 14 27 32 36 35 36 39 39 40 38 42 43 46 48 49 48 50 44 45 44 38 33 36 32 32 30 27 29
7 7 4 3 3 9 14 8 7 6 10 8 9 11 13 16 23 28 31 32 34 37 40 40 38 41 43 44 48 46 48 50 48 45 41 38 35 31 30 27 27 28 29 28
3 7 5 11 9 6 20 15 14 6 6 9 9 11 14 19 25 26 30 31 32 33 35 37 40 44 42 46 47 47 50 50 50 44 39 35 31 28 26 24 22 24 27 29
5 8 4 1 8 27 28 30 31 26 19 14 11 12 15 20 24 26 29 32 32 31 34 37 40 41 43 48 47 44 49 48 44 44 39 32 28 25 24 22 20 22 25 27
6 10 5 7 21 27 28 24 25 22 17 13 12 13 17 20 24 25 27 29 28 31 31 35 39 41 44 47 47 47 49 46 46 45 35 29 25 25 25 22 21 22 22 25
13 8 5 8 23 19 21 15 8 9 13 14 13 15 18 20 21 22 25 26 26 29 32 36 39 39 44 45 45 48 49 45 43 39 32 25 25 26 24 25 26 21 22 23
Wind_Direction
29 55 266 245 184 135 136 162 256 265 26 83 86 136 136 119 106 100 92 84 76 67 58 50 42 35 31 29 27 25 22 20 13 9 4 3 2 356 354 358 348 313 281 269
22 289 249 166 100 104 188 281 287 294 14 97 190 162 192 189 145 115 100 86 71 61 44 37 32 25 23 22 20 19 16 13 9 5 4 356 344 338 334 331 325 318 314 300
145 232 100 149 65 35 292 199 198 230 28 48 129 265 205 208 178 173 148 52 13 11 19 20 15 13 13 13 12 10 6 4 0 357 352 347 340 332 324 318 316 318 312 304
224 328 107 63 18 113 310 184 310 235 64 243 181 288 224 203 196 222 257 285 291 301 318 333 340 348 355 359 359 357 357 356 356 353 347 340 335 334 335 327 316 314 307 305
267 33 26 8 256 157 233 352 256 212 191 81 221 128 290 137 206 202 306 10 359 333 322 300 306 321 335 344 343 341 339 342 343 342 339 336 327 325 324 325 318 298 301 305
319 304 68 252 83 57 303 39 51 58 100 357 219 153 234 188 186 170 358 24 24 12 333 307 281 297 314 321 322 323 315 321 327 325 325 324 324 324 321 320 315 301 301 304
348 345 329 31 25 21 36 39 340 354 7 236 285 298 261 196 153 155 156 12 356 321 327 315 284 286 297 307 315 319 319 317 310 312 317 318 315 313 312 310 308 307 303 300
147 306 22 353 78 153 52 116 137 266 260 284 319 239 276 170 165 148 91 345 334 345 340 334 299 287 298 305 315 318 318 313 308 300 306 305 304 304 300 298 301 304 304 294
127 282 336 59 337 84 114 57 150 104 11 358 258 288 317 164 198 196 284 324 343 354 351 343 323 306 304 312 317 318 314 312 306 302 302 298 301 304 295 291 297 300 300 294
198 298 32 298 73 42 91 150 58 20 275 272 283 283 236 201 212 220 256 318 333 324 338 341 333 324 321 317 316 315 313 311 303 299 300 295 296 300 296 294 297 295 294 295
145 79 308 344 42 160 25 36 59 126 158 216 293 262 222 202 198 195 243 316 340 324 326 329 325 323 324 321 317 312 310 307 305 298 299 298 293 292 289 289 293 290 293 295
25 116 265 228 219 236 210 220 152 138 221 161 147 270 294 228 175 185 300 334 332 319 323 323 323 325 321 317 314 311 308 304 302 303 294 303 296 296 287 281 287 292 291 297
156 351 348 339 11 17 218 190 121 101 81 207 148 259 8 154 198 227 309 317 326 325 323 325 324 320 319 317 314 312 308 305 305 303 298 302 298 302 288 281 288 295 298 293
107 152 198 199 189 182 245 205 175 139 139 193 230 277 270 239 257 288 307 320 325 324 326 322 318 317 314 311 307 305 303 303 302 299 301 296 297 300 299 289 287 293 298 292
95 240 224 260 245 241 245 238 194 209 196 204 268 254 266 278 273 296 308 320 321 317 313 316 315 313 312 312 311 308 304 303 302 302 300 294 297 295 298 294 288 293 294 285
40 256 40 291 7 275 267 260 225 234 244 254 261 274 279 279 281 304 318 319 315 316 319 318 317 316 313 312 310 308 307 306 305 302 299 298 296 293 292 290 289 294 291 281
151 140 88 265 347 301 279 242 190 197 204 206 214 244 38 281 310 313 314 316 317 318 318 317 316 314 313 311 311 311 310 309 307 304 301 298 295 293 287 285 283 288 290 283
141 134 144 261 350 269 244 202 183 215 234 222 262 264 283 295 313 312 317 313 310 316 316 316 313 315 320 320 316 314 313 310 306 305 302 299 296 291 289 286 284 284 289 282
157 141 231 204 218 298 280 158 181 182 270 221 233 262 280 320 321 312 314 310 316 317 316 315 321 322 322 321 319 315 313 311 307 304 304 303 297 290 288 287 286 287 279 285
93 76 146 137 189 239 237 183 151 139 281 216 177 198 291 341 311 304 315 321 322 326 328 329 325 322 323 324 318 313 312 310 309 307 306 306 301 298 283 282 283 275 292 281
144 207 214 206 254 280 246 176 130 96 272 175 187 300 271 218 254 299 317 323 329 331 333 332 333 328 327 327 327 321 318 313 313 315 313 306 296 297 292 292 283 286 278 295
174 166 198 149 194 282 172 141 184 214 156 196 272 258 265 287 305 315 321 327 331 333 335 336 331 328 326 328 329 323 325 327 322 323 312 316 306 301 294 291 285 277 284 280
245 204 184 187 212 255 196 230 241 226 240 281 258 291 299 308 314 319 324 329 330 333 336 338 330 327 326 333 332 326 329 332 328 321 306 313 308 300 300 287 289 287 284 285
245 188 227 79 225 241 249 255 256 260 269 287 282 294 306 310 316 321 325 328 331 336 338 335 332 330 329 339 333 330 336 337 335 325 319 309 313 308 299 297 297 294 296 294
211 154 211 259 279 276 272 268 272 263 265 265 280 298 308 313 319 322 325 329 330 331 331 341 338 331 334 340 335 335 339 343 340 335 322 313 310 309 305 303 295 296 295 293
200 198 185 247 264 253 271 288 232 225 268 271 277 295 308 314 319 326 327 325 329 325 333 340 340 340 342 343 336 339 345 346 345 341 336 325 314 309 306 300 302 301 292 292
Height
1544 1550 1554 1550 1550 1550 1552 1556 1559 1555 1552 1559 1564 1566 1563 1562 1561 1560 1559 1557 1556 1554 1553 1552 1550 1548 1546 1543 1540 1537 1535 1532 1530 1528 1527 1525 1523 1522 1520 1517 1515 1513 1510 1510
1550 1553 1547 1547 1548 1550 1552 1555 1559 1554 1553 1558 1567 1566 1563 1562 1562 1561 1559 1558 1557 1556 1555 1553 1551 1548 1546 1543 1541 1538 1535 1533 1531 1528 1526 1524 1522 1521 1518 1516 1514 1512 1509 1506
1552 1548 1546 1547 1550 1552 1553 1555 1556 1558 1556 1561 1566 1567 1563 1561 1561 1560 1559 1558 1557 1556 1554 1553 1550 1548 1546 1543 1541 1538 1536 1534 1531 1528 1525 1523 1520 1518 1515 1513 1511 1508 1505 1502
1549 1546 1546 1549 1551 1553 1557 1551 1552 1555 1560 1568 1561 1572 1563 1560 1560 1560 1559 1558 1557 1555 1554 1552 1550 1548 1545 1543 1541 1539 1536 1533 1530 1527 1524 1521 1517 1513 1510 1508 1505 1504 1501 1498
1550 1549 1550 1551 1551 1551 1555 1551 1553 1553 1558 1561 1563 1570 1555 1561 1561 1559 1557 1556 1555 1554 1552 1549 1548 1546 1544 1542 1539 1536 1533 1531 1528 1525 1521 1518 1514 1511 1507 1504 1501 1499 1497 1494
1551 1549 1549 1549 1549 1550 1550 1550 1557 1561 1566 1569 1559 1564 1557 1562 1556 1557 1555 1554 1554 1552 1550 1547 1546 1544 1543 1541 1538 1534 1531 1528 1524 1521 1518 1514 1510 1506 1502 1499 1496 1494 1492 1489
1556 1552 1551 1550 1551 1552 1553 1562 1570 1565 1570 1565 1560 1562 1547 1549 1550 1552 1553 1553 1551 1550 1547 1544 1543 1542 1540 1537 1534 1530 1527 1523 1520 1516 1513 1510 1505 1501 1497 1493 1490 1487 1484 1482
1563 1558 1554 1553 1555 1558 1560 1564 1576 1568 1577 1575 1566 1560 1545 1545 1547 1549 1550 1550 1549 1547 1545 1542 1540 1539 1537 1534 1530 1526 1523 1518 1514 1510 1506 1503 1499 1495 1490 1486 1483 1479 1476 1473
1567 1561 1556 1556 1555 1557 1562 1570 1569 1577 1584 1586 1567 1552 1547 1546 1547 1547 1547 1547 1546 1544 1542 1540 1538 1536 1533 1529 1525 1520 1515 1511 1507 1503 1498 1494 1491 1487 1483 1479 1475 1471 1468 1465
1568 1565 1561 1558 1556 1558 1557 1564 1574 1586 1576 1576 1567 1563 1544 1547 1545 1544 1544 1543 1542 1540 1537 1536 1534 1532 1528 1524 1518 1512 1508 1502 1497 1493 1489 1485 1482 1479 1475 1470 1466 1462 1459 1457
1568 1569 1562 1561 1564 1565 1566 1569 1576 1580 1585 1579 1582 1557 1534 1532 1535 1540 1540 1539 1537 1535 1533 1531 1529 1525 1520 1515 1510 1505 1500 1494 1489 1485 1481 1476 1472 1469 1466 1461 1457 1454 1450 1448
1569 1575 1574 1563 1563 1564 1564 1566 1572 1585 1577 1593 1604 1565 1531 1530 1531 1534 1534 1533 1533 1530 1528 1525 1522 1517 1512 1506 1500 1495 1489 1485 1480 1475 1470 1464 1460 1456 1453 1450 1448 1445 1442 1439
1568 1576 1580 1561 1566 1563 1565 1566 1572 1581 1588 1593 1593 1550 1528 1531 1532 1531 1531 1530 1527 1525 1522 1517 1513 1508 1502 1496 1491 1485 1479 1474 1469 1463 1458 1453 1449 1445 1441 1440 1438 1435 1432 1430
1568 1577 1571 1571 1561 1568 1567 1567 1570 1573 1597 1575 1561 1530 1526 1531 1530 1528 1526 1523 1521 1518 1514 1510 1506 1501 1496 1490 1483 1476 1469 1465 1459 1453 1448 1442 1438 1435 1431 1429 1427 1425 1423 1420
1569 1574 1575 1570 1569 1569 1566 1562 1566 1568 1564 1562 1525 1540 1518 1524 1525 1523 1521 1519 1516 1513 1509 1505 1499 1493 1486 1479 1472 1466 1461 1455 1450 1443 1438 1433 1429 1424 1420 1418 1416 1414 1412 1410
1571 1574 1576 1571 1566 1567 1566 1554 1557 1554 1554 1551 1539 1532 1517 1517 1519 1519 1517 1515 1511 1505 1500 1495 1489 1483 1477 1470 1463 1457 1451 1444 1439 1432 1427 1422 1418 1414 1409 1407 1404 1403 1400 1399
1573 1577 1584 1580 1572 1568 1558 1535 1541 1540 1538 1534 1536 1515 1513 1514 1515 1515 1512 1510 1505 1500 1495 1488 1481 1474 1468 1462 1455 1447 1440 1434 1428 1423 1417 1412 1407 1402 1399 1397 1394 1392 1390 1388
1573 1576 1583 1587 1576 1569 1523 1526 1527 1529 1525 1523 1518 1512 1512 1511 1512 1511 1509 1506 1502 1496 1488 1481 1475 1467 1460 1452 1445 1438 1432 1425 1419 1412 1406 1401 1397 1391 1388 1385 1383 1381 1380 1378
1564 1571 1583 1588 1588 1546 1519 1523 1525 1527 1514 1509 1510 1509 1510 1509 1506 1505 1505 1503 1498 1490 1483 1476 1469 1461 1452 1445 1438 1430 1422 1416 1409 1401 1395 1389 1385 1380 1377 1374 1372 1371 1369 1368
1566 1567 1573 1583 1590 1566 1518 1519 1519 1519 1519 1501 1504 1506 1508 1507 1511 1500 1499 1495 1489 1483 1476 1467 1462 1456 1448 1439 1431 1423 1413 1405 1397 1390 1383 1378 1373 1369 1365 1364 1362 1360 1359 1357
1569 1571 1570 1578 1585 1546 1516 1518 1519 1532 1506 1498 1501 1503 1504 1506 1503 1495 1492 1486 1481 1475 1467 1461 1455 1449 1442 1433 1425 1415 1405 1396 1387 1380 1373 1367 1361 1358 1355 1353 1352 1351 1348 1348
1556 1565 1569 1571 1576 1551 1507 1517 1519 1500 1497 1499 1500 1500 1500 1498 1494 1491 1486 1481 1475 1467 1459 1453 1448 1442 1434 1428 1418 1408 1399 1388 1378 1371 1364 1358 1353 1349 1347 1344 1342 1341 1340 1338
1550 1534 1543 1540 1523 1504 1501 1496 1496 1495 1495 1496 1497 1496 1495 1492 1489 1486 1480 1476 1471 1464 1457 1452 1446 1436 1430 1423 1414 1402 1392 1381 1370 1362 1356 1351 1346 1341 1339 1337 1335 1333 1332 1329
1528 1524 1528 1524 1497 1494 1495 1495 1494 1492 1492 1492 1492 1492 1490 1487 1484 1480 1475 1470 1464 1459 1453 1449 1441 1433 1425 1417 1408 1400 1388 1376 1365 1355 1348 1344 1339 1336 1333 1331 1329 1327 1325 1322
1520 1519 1515 1510 1494 1490 1487 1487 1486 1486 1488 1489 1488 1488 1486 1483 1479 1475 1470 1465 1461 1456 1452 1446 1438 1430 1421 1412 1403 1395 1383 1371 1360 1349 1342 1338 1334 1330 1326 1325 1323 1322 1319 1316
1508 1503 1510 1494 1482 1484 1481 1481 1482 1483 1484 1485 1485 1484 1482 1479 1475 1472 1467 1463 1458 1453 1447 1441 1435 1428 1418 1410 1400 1390 1379 1369 1357 1347 1338 1334 1330 1325 1322 1319 1317 1316 1314 1310